EW8163 Weather Reports


time (UTC)temp
C
wind
direction
speed
KPH
gust
KPH
rain 1hr
cm
rain 24hr
cm
rain mn
cm
humidity
%
barometer
mb
20260506175014 13 13 3.2 6.4 0.00 0.05 0.00 64 1021.9
20260506174915 13 19 0.0 3.2 0.00 0.05 0.00 64 1022.0
20260506173915 13 67 0.0 3.2 0.00 0.05 0.00 67 1022.0
20260506172915 13 58 1.6 6.4 0.00 0.05 0.00 65 1021.7
20260506171916 12 3 0.0 4.8 0.00 0.08 0.00 67 1021.7
20260506170914 12 22 0.0 4.8 0.00 0.08 0.00 67 1021.5
20260506170816 12 13 0.0 1.6 0.00 0.08 0.00 66 1021.7
20260506165815 12 359 1.6 4.8 0.00 0.08 0.00 64 1021.7
20260506164714 12 349 3.2 4.8 0.00 0.08 0.00 66 1021.7
20260506162814 11 104 1.6 6.4 0.00 0.08 0.00 68 1021.5
20260506161814 11 360 0.0 0.0 0.00 0.08 0.00 68 1021.5
20260506160814 12 45 0.0 3.2 0.00 0.08 0.00 68 1021.5
20260506155816 11 112 0.0 1.6 0.00 0.08 0.00 70 1021.5
20260506155716 11 111 1.6 4.8 0.00 0.08 0.00 71 1021.6
20260506154714 10 90 0.0 1.6 0.00 0.08 0.00 71 1021.5
20260506153715 9 37 0.0 0.0 0.00 0.10 0.00 74 1021.4
20260506152814 8 135 0.0 1.6 0.00 0.10 0.00 80 1021.4
20260506151816 8 180 0.0 0.0 0.00 0.10 0.00 84 1021.4
20260506150815 7 180 0.0 0.0 0.00 0.10 0.00 84 1021.2
20260506145815 5 180 0.0 0.0 0.00 0.10 0.00 91 1021.1
20260506144813 4 180 0.0 0.0 0.00 0.10 0.00 91 1020.9
20260506144714 3 180 0.0 0.0 0.00 0.10 0.00 92 1020.9
20260506143713 2 180 0.0 0.0 0.00 0.10 0.00 97 1020.8
20260506142713 1 180 0.0 0.0 0.00 0.10 0.00 97 1020.6
20260506135816 0 180 0.0 0.0 0.00 0.13 0.00 97 1020.3
20260506134815 0 180 0.0 0.0 0.00 0.13 0.00 97 1020.2
20260506133815 0 180 0.0 0.0 0.00 0.13 0.00 96 1020.2
20260506133713 0 180 0.0 0.0 0.00 0.13 0.00 96 1020.2
20260506132715 0 180 0.0 0.0 0.00 0.13 0.00 96 1020.1
20260506125815 0 180 0.0 0.0 0.00 0.15 0.00 96 1019.8
20260506124814 1 180 0.0 0.0 0.00 0.15 0.00 96 1019.9
20260506124715 1 180 0.0 0.0 0.00 0.15 0.00 96 1019.8
20260506123713 1 180 0.0 0.0 0.00 0.15 0.00 96 1019.8
20260506122714 1 180 0.0 0.0 0.00 0.18 0.00 96 1019.8
20260506121715 1 180 0.0 0.0 0.00 0.18 0.00 96 1020.0
20260506120714 1 180 0.0 0.0 0.00 0.18 0.00 95 1019.9
20260506114713 1 180 0.0 0.0 0.00 0.20 0.00 96 1019.9
20260506112714 2 180 0.0 0.0 0.00 0.23 0.00 95 1019.8
20260506110713 3 180 0.0 0.0 0.00 0.23 0.00 95 1019.5
20260506104715 3 180 0.0 0.0 0.00 0.23 0.00 96 1019.5
20260506103714 3 180 0.0 0.0 0.00 0.23 0.00 96 1019.5
20260506102714 3 180 0.0 0.0 0.00 0.23 0.00 96 1019.3
20260506102612 3 180 0.0 0.0 0.00 0.23 0.00 96 1019.3
20260506102515 3 180 0.0 0.0 0.00 0.23 0.00 96 1019.3
20260506101514 3 180 0.0 0.0 0.00 0.23 0.00 96 1019.3
20260506100515 3 180 0.0 0.0 0.00 0.23 0.00 95 1019.3
20260506095614 3 180 0.0 0.0 0.00 0.23 0.00 95 1019.3
20260506095515 3 180 0.0 0.0 0.00 0.23 0.00 95 1019.5
20260506094613 3 180 0.0 0.0 0.00 0.23 0.00 96 1019.3
20260506093614 3 180 0.0 0.0 0.00 0.23 0.00 96 1019.3
20260506091614 3 180 0.0 0.0 0.00 0.23 0.00 95 1019.5
20260506090713 3 180 0.0 0.0 0.00 0.23 0.00 96 1019.6
20260506085714 3 180 0.0 0.0 0.00 0.23 0.00 96 1019.6
20260506084714 3 180 0.0 0.0 0.00 0.23 0.00 96 1019.6
20260506082813 3 180 0.0 0.0 0.00 0.23 0.00 95 1019.6
20260506081813 2 135 0.0 0.0 0.00 0.23 0.00 96 1019.8
20260506080814 2 135 0.0 0.0 0.00 0.23 0.00 97 1019.5
20260506073014 2 135 0.0 0.0 0.00 0.23 0.00 96 1019.3
20260506072915 2 135 0.0 0.0 0.00 0.23 0.00 96 1019.4
20260506071914 2 135 0.0 0.0 0.00 0.23 0.00 97 1019.2
20260506071812 2 135 0.0 0.0 0.00 0.23 0.00 97 1019.2
20260506070814 1 135 0.0 0.0 0.00 0.23 0.00 96 1019.0
20260506062023 1 135 0.0 0.0 0.00 0.23 0.23 96 1018.5
20260506061024 1 135 0.0 0.0 0.00 0.23 0.23 96 1018.3
20260506060124 2 135 0.0 0.0 0.00 0.23 0.23 96 1018.3
20260506051126 2 135 0.0 0.0 0.00 0.23 0.23 94 1017.9
20260506050124 3 135 0.0 0.0 0.00 0.23 0.23 94 1017.8
20260506044124 3 135 0.0 0.0 0.00 0.23 0.23 94 1017.9
20260506044025 3 135 0.0 0.0 0.00 0.23 0.23 94 1017.7
20260506043123 3 135 0.0 0.0 0.00 0.23 0.23 94 1017.8
20260506042124 3 135 0.0 0.0 0.00 0.23 0.23 93 1017.8
20260506041126 4 135 0.0 0.0 0.00 0.23 0.23 93 1017.6
20260506041025 4 135 0.0 0.0 0.00 0.23 0.23 93 1017.6
20260506040028 5 135 0.0 0.0 0.00 0.23 0.23 93 1017.6
20260506035923 5 135 0.0 0.0 0.00 0.23 0.23 92 1017.6
20260506034925 5 135 0.0 0.0 0.00 0.23 0.23 92 1017.6
20260506032925 5 135 0.0 0.0 0.00 0.23 0.23 92 1017.4
20260506031824 5 135 0.0 0.0 0.00 0.23 0.23 91 1017.2
20260506025823 5 135 0.0 0.0 0.00 0.23 0.23 92 1017.1
20260506024825 5 135 0.0 0.0 0.00 0.23 0.23 92 1017.0
20260506023824 5 90 0.0 0.0 0.00 0.23 0.23 91 1017.0
20260506023723 5 90 0.0 0.0 0.00 0.23 0.23 92 1017.0
20260506021726 5 315 0.0 0.0 0.00 0.23 0.23 92 1016.7
20260506020723 5 22 0.0 0.0 0.00 0.23 0.23 92 1016.5
20260506020625 5 353 0.0 0.0 0.00 0.23 0.23 92 1016.5
20260506015626 5 315 0.0 0.0 0.00 0.23 0.23 92 1016.5
20260506014622 5 329 1.6 3.2 0.00 0.23 0.23 92 1016.4
20260506011624 5 22 0.0 0.0 0.00 0.23 0.23 92 1016.3
20260506011526 5 327 1.6 4.8 0.00 0.23 0.23 93 1016.5
20260506005525 5 360 0.0 3.2 0.00 0.23 0.23 92 1016.2
20260506005424 5 19 0.0 0.0 0.00 0.23 0.23 92 1016.4
20260506005325 5 14 0.0 3.2 0.00 0.23 0.23 92 1016.3
20260506004424 5 304 0.0 3.2 0.00 0.23 0.23 91 1016.2
20260506003425 6 157 0.0 0.0 0.00 0.23 0.23 91 1016.3
20260506002522 6 157 0.0 4.8 0.00 0.23 0.23 91 1016.3
20260506001524 6 27 0.0 4.8 0.00 0.23 0.23 89 1016.2
20260505235523 6 90 0.0 0.0 0.00 0.23 0.23 90 1016.2
20260505234524 6 11 0.0 3.2 0.00 0.23 0.23 87 1016.3
20260505233525 6 360 1.6 4.8 0.00 0.23 0.23 87 1016.2
20260505232525 6 78 0.0 1.6 0.00 0.23 0.23 85 1016.2
20260505231623 6 10 1.6 3.2 0.00 0.23 0.23 84 1016.2
20260505225623 6 337 0.0 4.8 0.00 0.23 0.23 85 1016.2
20260505224625 6 339 3.2 8.0 0.03 0.23 0.23 86 1016.0
20260505224524 6 315 0.0 0.0 0.03 0.23 0.23 86 1016.0
20260505223523 6 157 0.0 0.0 0.03 0.23 0.23 87 1016.0
20260505222523 6 360 0.0 0.0 0.03 0.23 0.23 87 1016.1
20260505221622 6 180 0.0 1.6 0.03 0.23 0.23 87 1016.0
20260505221524 6 180 0.0 3.2 0.03 0.23 0.23 87 1016.1
20260505214525 6 273 3.2 6.4 0.03 0.20 0.20 88 1016.0
20260505212523 7 90 0.0 0.0 0.03 0.20 0.20 89 1016.2
20260505211525 7 112 0.0 1.6 0.03 0.20 0.20 88 1016.0
20260505210524 7 149 0.0 3.2 0.03 0.20 0.20 87 1015.9
20260505204623 7 156 1.6 6.4 0.00 0.18 0.18 86 1015.8
20260505203624 7 134 0.0 3.2 0.00 0.18 0.18 84 1015.6
20260505202623 8 349 4.8 9.7 0.00 0.18 0.18 77 1015.7
20260505202523 8 249 0.0 6.4 0.00 0.18 0.18 77 1015.7
20260505201523 8 157 0.0 1.6 0.00 0.18 0.18 76 1015.6
20260505200524 8 240 3.2 8.0 0.00 0.18 0.18 76 1015.6
20260505195525 7 184 3.2 6.4 0.00 0.18 0.18 80 1015.7
20260505194622 8 112 0.0 0.0 0.00 0.18 0.18 78 1015.7
20260505193626 8 130 3.2 8.0 0.00 0.18 0.18 79 1015.6
20260505192624 8 2 3.2 6.4 0.00 0.18 0.18 75 1015.5
20260505191524 8 24 4.8 9.7 0.00 0.18 0.18 75 1015.5
20260505185525 7 183 3.2 8.0 0.00 0.18 0.18 75 1015.5
20260505185425 8 223 6.4 9.7 0.00 0.18 0.18 75 1015.5
20260505183523 8 311 4.8 8.0 0.00 0.18 0.18 78 1015.3
20260505183424 8 300 1.6 6.4 0.00 0.18 0.18 78 1015.4
20260505181439 7 270 0.0 1.6 0.03 0.18 0.18 81 1015.3
20260505181322 7 289 0.0 3.2 0.03 0.18 0.18 80 1015.3
20260505181222 7 270 0.0 1.6 0.03 0.18 0.18 81 1015.3
20260505180123 7 258 6.4 8.0 0.03 0.18 0.18 82 1015.3